Location: Unspecified
(40.7945°N, 0.0000°E)
Time: 05:27:10
(UTC+00:00)

A-11 Canister half - Pass Details

Date: 25 January 2021
Orbit: 1516 x 1684 km, 47.2° (Epoch: 07 March)

Event Time Altitude Azimuth Distance (km) Brightness Sun altitude
Rises 03:13:56 0° 297° (WNW) 4,663 - -45.6°
Reaches altitude 10° 03:17:10 10° 290° (WNW) 3,679 - -45.0°
Maximum altitude 03:25:33 40° 225° (SW) 2,105 - -43.5°
Exits shadow 03:32:33 16° 164° (SSE) 3,300 10.7 -42.2°
Drops below altitude 10° 03:34:04 10° 159° (SSE) 3,730 11.1 -41.9°
Sets 03:37:23 0° 153° (SSE) 4,733 11.7 -41.3°
